Location: Pacheco
(37.9835°N, 122.0752°W)
Time: 23:05:50
(UTC+00:00)

Cosmos 1461 - Pass Details

Date: 13 April 2024
Orbit: 499 x 586 km, 65.0° (Epoch: 20 May)

Event Time Altitude Azimuth Distance (km) Brightness Sun altitude
Rises 12:15:40 0° 324° (NW) 2,606 6.2 -15.6°
Reaches altitude 10° 12:17:52 10° 319° (NW) 1,711 5.2 -15.2°
Maximum altitude 12:21:33 49° 244° (WSW) 646 2.7 -14.5°
Drops below altitude 10° 12:25:13 10° 168° (SSE) 1,695 5.2 -13.9°
Sets 12:27:24 0° 163° (SSE) 2,578 6.2 -13.5°
